Pacific - South Coast: Past 24 Hour Conditions

 

West Sea Otter - 46204

12:00 PM PDT 18 July 2018Buoy position: 51.23N 128.46W
Disclaimer

This table is a summary of hourly weather conditions for the past 24 hours.
Please note that these observations might not always be representative of weather conditions over their associated marine area.

Date / Time
(PDT)
Wind(knots) Wave height(m) Wave period(s) Pressure(kPa) Air tempC) Water tempC)
18 July 2018
12:00 NNW 16 gust 18 1.2 8.0 102.4 15 16
11:00 NNW 16 gust 18 1.1 7.0 102.3 15 16
10:00 NW 16 gust 18 1.2 8.0 102.3 14 16
9:00 NW 12 gust 14 1.2 8.0 102.3 14 16
8:00 WNW 12 gust 14 1.2 9.0 102.2 14 16
7:00 NW 8 gust 10 1.2 7.0 102.1 15 16
6:00 WNW 10 gust 12 1.3 10.0 102.1 15 16
5:00 WNW 10 gust 14 1.2 5.0 102.1 15 16
4:00 W 12 gust 14 1.2 5.0 102.1 15 16
3:00 W 12 gust 14 1.2 6.0 102.1 15 16
2:00 W 12 gust 12 1.3 5.0 102.1 15 16
1:00 W 10 gust 12 1.4 9.0 102.1 15 16
0:00 W 12 gust 14 1.4 9.0 102.1 15 16
17 July 2018
23:00 W 14 gust 18 1.2 8.0 102.1 15 16
22:00 WNW 16 gust 18 1.3 10.0 102.0 15 16
21:00 W 12 gust 16 1.3 10.0 102.0 16 16
20:00 W 12 gust 14 1.2 10.0 102.0 16 16
19:00 W 12 gust 16 1.2 10.0 102.0 15 16
18:00 W 14 gust 16 1.3 5.0 102.0 16 16
17:00 W 14 gust 18 1.3 8.0 102.0 15 16
16:00 W 14 gust 16 1.3 10.0 102.0 15 16
15:00 W 10 gust 12 1.3 9.0 102.0 15 16
14:00 WNW 12 gust 14 1.3 9.0 102.0 16 16
13:00 W 14 gust 16 1.4 10.0 101.9 16 16
12:00 WNW 12 gust 14 1.4 9.0 101.9 16 16

Zoom-in to make a selection

Map of Pacific - South Coast marine weather areas South Nomad - 46036 Sentry Shoal - 46131 South Brooks - 46132 Halibut Bank - 46146 South Moresby - 46147 South Hecate Strait - 46185 West Sea Otter - 46204 La Perouse Bank - 46206 East Dellwood - 46207 Discovery Island Esquimalt Harbour Kelp Reefs Malahat Race Rocks Lightstation Saturna Island Sheringham Point University of Victoria Victoria Gonzales Victoria Int'l Airport Ballenas Islands Campbell River Airport Comox Airport Entrance Island Fanny Island Nanaimo Airport Port Hardy Airport Sisters Islets Estevan Point Port Alberni Sartine Island Solander Island Tofino Airport Grief Point Howe Sound - Pam Rocks Powell River Airport Sechelt Squamish Airport Cape St.James Bella Bella Airport Bella Coola Airport Cathedral Point Herbert Island Point Atkinson Sand Heads Lightstation Tsawwassen Ferry Terminal Vancouver Int'l Airport Vancouver Harbour West Vancouver
Legend:
buoy Buoy
land station Land Station

Pacific - South Coast Area

Another Region

What we are doing

Features

Follow us on Twitter!

Get timely local #weather alerts directly to your Twitter feed

Lightning Safety

When thunder roars, GO INDOORS!

UV Index and sun protection

Be weather wise!

Date modified: